RH
66 66 65 63 61 60 60 60 61 62 62 63 64 66 67 68 68 70 74 74 73 74 74 77 80 80 79 79 77 74 68 61 54 48 43 38 35 33 32 31 30 30 30 30 30 30 31 31 31 31 30 30 31 30 30 31 31 31 32 34 35 35 35 36 36 36 35 35 35 34 33 32 31 31 30 28 26 25 24 23 23 23 23 22 22 22
63 66 65 64 64 64 64 65 66 68 69 70 72 74 75 75 74 75 79 80 78 77 75 76 77 73 69 64 58 51 44 39 35 34 33 32 32 31 30 30 30 30 30 29 30 30 30 30 30 30 29 29 29 29 29 29 30 31 32 33 34 35 36 37 38 39 39 39 39 38 38 37 35 35 35 34 32 30 28 26 26 25 24 24 24 23
68 70 71 71 71 71 72 73 75 76 76 77 78 80 80 79 79 80 83 86 84 79 74 68 60 51 44 40 36 33 32 32 32 32 32 31 31 30 30 30 30 30 30 30 30 30 30 30 30 30 30 30 30 30 31 31 31 31 31 31 31 31 31 31 31 31 32 31 31 31 31 31 30 30 30 31 30 28 27 26 25 25 24 24 23 22
77 77 78 79 80 79 79 80 81 82 81 80 81 83 84 82 81 80 79 76 69 59 51 43 37 32 30 30 30 30 30 31 31 32 32 32 33 33 33 33 33 33 33 33 33 34 34 34 34 34 35 35 36 36 37 37 36 36 36 35 34 33 33 32 31 30 30 29 29 29 28 28 28 28 27 28 28 28 27 27 27 26 26 26 25 24
79 78 78 79 80 81 82 83 84 86 86 84 82 80 79 75 68 60 53 47 40 36 32 30 29 30 30 30 30 31 31 32 33 33 34 36 36 35 35 34 35 35 35 36 36 36 36 37 37 37 38 39 39 39 39 39 39 38 38 38 37 37 36 36 35 35 34 34 34 33 33 32 32 32 31 31 31 31 31 31 31 31 30 30 29 29
78 77 77 78 77 77 78 77 76 75 73 69 64 58 52 47 42 38 35 33 32 32 32 32 32 31 31 32 33 34 34 35 35 35 35 35 34 32 32 31 32 32 32 32 31 31 31 31 32 32 32 32 32 32 33 32 32 33 33 33 33 33 33 33 33 33 32 32 32 32 32 31 31 30 29 30 30 30 30 30 30 29 29 29 29 29
67 66 64 61 59 56 54 52 49 47 45 42 39 37 35 35 34 33 34 34 33 33 32 32 31 29 27 27 29 29 29 30 29 29 28 27 25 25 24 24 24 24 24 24 24 24 23 24 24 24 24 24 24 24 24 25 25 25 25 25 25 25 25 25 25 25 24 24 24 23 23 23 22 22 21 21 21 21 21 21 21 21 21 21 21 22
43 41 40 38 37 36 34 34 33 33 33 33 32 32 31 31 30 30 29 28 28 27 26 26 25 24 22 21 23 24 24 25 25 25 25 24 23 23 23 23 23 23 23 23 23 23 23 23 23 23 23 23 23 23 23 24 24 24 23 23 23 23 22 22 22 21 21 21 20 20 19 19 19 19 19 18 18 18 18 18 18 17 17 17 17 17
30 30 29 29 28 28 28 28 27 27 27 27 27 27 27 27 26 26 26 27 27 27 28 27 26 26 24 22 23 25 26 26 26 27 27 27 27 28 28 29 29 29 29 29 29 29 29 28 28 28 28 28 28 28 28 28 28 28 28 27 27 27 26 26 25 25 25 24 24 24 23 23 23 22 22 22 21 21 20 20 19 19 18 18 17 17
25 25 25 25 26 26 26 26 27 27 28 29 30 31 32 33 33 33 33 33 33 34 34 34 33 33 30 27 28 31 32 31 30 32 33 33 32 32 33 33 34 34 34 34 34 35 34 34 34 34 34 34 34 35 35 35 35 35 35 35 35 34 34 34 33 33 33 32 32 31 30 30 29 28 28 27 26 26 25 25 24 23 23 22 22 21
28 29 30 30 31 32 32 33 34 34 34 34 35 36 37 38 39 39 39 38 39 39 38 38 38 36 34 31 31 33 34 33 33 35 37 38 37 36 36 36 37 37 38 38 38 39 39 39 39 39 39 40 40 40 40 40 40 40 40 41 41 40 40 40 40 40 39 39 38 38 37 37 36 35 34 34 33 32 32 32 31 30 30 29 28 28
32 32 32 32 32 33 33 34 34 34 35 35 35 35 36 36 36 37 37 37 38 38 37 38 38 36 35 33 32 31 31 31 32 33 35 36 37 37 37 37 37 37 37 38 38 39 39 40 40 40 41 41 42 42 43 43 43 43 44 44 44 44 44 44 44 44 43 43 43 42 42 42 42 41 41 40 39 38 38 38 37 35 35 34 33 33
31 31 31 31 31 31 31 31 31 31 31 31 31 31 31 32 33 33 33 33 33 33 33 33 32 32 32 32 30 29 28 27 27 28 29 30 31 32 33 33 33 34 34 34 35 35 35 36 35 36 37 37 38 39 40 40 41 41 42 42 42 43 43 43 44 44 44 44 43 43 43 43 43 43 43 43 43 43 42 42 42 41 40 39 38 38
28 29 29 29 29 29 29 30 30 30 30 30 29 29 29 30 30 31 31 31 31 31 30 29 28 28 27 27 27 25 23 22 21 20 20 20 21 22 22 23 24 24 25 26 26 27 27 28 28 28 29 30 31 31 32 33 33 34 35 36 37 37 38 39 40 40 40 40 40 40 41 41 41 41 41 41 41 41 41 41 42 42 42 42 41 40
27 27 27 28 28 28 28 28 29 29 29 29 28 28 27 27 26 26 26 25 25 25 25 24 23 22 21 20 20 19 17 16 15 14 14 13 13 13 13 14 14 14 15 15 16 16 16 17 17 18 18 19 19 20 21 22 22 23 24 25 25 26 27 28 29 31 31 32 32 33 33 34 34 35 35 36 36 36 36 36 37 37 38 38 39 39
26 26 26 26 26 26 26 26 26 26 25 25 24 24 23 21 20 20 19 18 17 16 16 16 16 15 15 14 14 13 13 13 12 12 12 11 11 11 11 11 11 11 11 11 11 11 11 11 11 12 12 12 12 12 13 13 13 14 14 14 15 15 16 16 17 18 19 19 20 20 21 21 22 23 23 24 24 24 25 25 25 26 26 27 28 28
24 24 24 24 23 23 23 23 22 22 21 20 19 19 18 17 17 16 16 15 14 14 14 13 13 13 13 12 12 11 11 11 11 11 10 10 10 10 10 10 10 10 10 10 10 10 10 10 10 10 10 10 10 10 10 10 10 10 10 10 10 11 11 11 11 12 12 12 12 13 13 13 13 13 14 14 14 14 14 14 15 15 15 15 15 16
23 24 23 23 24 23 23 23 22 22 21 21 21 20 20 19 18 17 17 16 15 15 14 13 13 12 11 11 10 10 10 9 9 9 9 9 9 8 8 8 8 8 8 8 8 8 8 8 8 8 8 8 8 8 8 9 9 8 9 9 9 9 9 9 9 9 10 10 10 10 10 10 10 10 10 10 10 11 10 10 10 10 10 10 10 10
26 27 27 26 26 26 26 26 25 25 23 22 21 20 19 19 18 17 15 14 13 12 13 13 12 11 9 9 8 8 8 7 7 7 7 7 7 7 8 7 7 8 8 8 7 7 7 7 7 8 8 8 8 8 8 8 8 8 8 8 8 8 8 8 9 8 9 9 9 9 9 9 9 9 9 9 9 9 9 9 9 9 9 8 8 8
27 28 28 28 28 28 27 27 26 26 26 25 24 23 24 24 23 22 21 20 17 15 15 15 15 13 11 9 9 8 7 6 6 6 6 6 6 7 7 7 7 7 7 8 8 8 8 7 8 8 8 8 8 8 8 8 9 8 8 9 8 9 9 9 9 9 9 9 9 9 9 9 9 9 9 9 9 9 9 9 9 8 9 8 8 8
29 29 30 30 31 32 32 32 31 31 33 37 40 41 42 41 38 35 33 31 27 22 20 17 16 15 12 11 9 8 8 7 6 6 6 6 6 6 7 7 7 7 7 8 7 8 8 7 8 8 8 8 8 9 9 9 9 9 9 9 9 9 9 9 9 9 9 9 9 9 9 9 9 9 9 9 9 9 8 9 8 8 8 8 8 8
37 39 39 39 40 41 43 44 44 43 41 42 46 48 48 48 46 41 37 33 29 25 21 18 16 14 12 11 10 8 8 7 7 7 7 7 7 7 7 7 7 8 8 8 8 8 9 8 9 9 8 9 9 9 9 9 9 9 9 9 9 9 9 9 9 8 9 8 8 8 8 8 8 8 8 8 8 8 8 8 8 8 7 7 7 7
45 46 47 49 51 52 53 54 55 54 51 49 48 48 47 44 41 37 34 31 27 23 20 17 15 13 11 10 9 8 7 7 7 7 7 7 7 7 7 7 7 8 8 8 9 9 10 10 10 10 10 10 10 9 9 9 9 9 9 9 9 9 8 9 9 8 8 8 8 8 8 8 8 8 8 8 8 8 8 7 7 7 7 7 7 7
49 48 48 49 51 52 53 55 55 55 54 52 48 44 41 38 36 33 29 26 22 19 16 14 12 10 9 9 8 8 8 7 7 7 7 8 7 8 8 8 8 8 8 9 9 9 10 10 10 10 10 10 10 10 9 9 9 9 9 9 9 9 9 9 9 9 8 8 8 8 8 8 8 8 8 8 8 8 7 7 7 7 7 7 6 7
48 48 46 46 47 49 50 51 50 49 48 45 43 39 37 34 31 29 25 21 19 15 12 11 10 9 8 8 8 8 8 8 8 8 8 8 8 8 8 8 8 9 9 9 9 10 10 10 10 9 9 9 9 9 9 8 8 8 8 8 8 8 8 8 8 8 8 8 8 8 8 8 8 8 8 7 7 7 7 7 7 7 7 6 6 6
46 45 44 44 46 47 46 45 45 44 42 41 40 38 35 31 27 25 22 19 17 15 12 11 11 11 10 8 8 8 8 8 8 8 7 7 7 7 7 7 8 8 9 9 9 9 9 9 9 9 9 9 8 8 8 8 8 8 7 7 7 7 7 7 7 7 7 7 7 7 7 7 7 7 7 7 7 7 7 7 7 7 6 6 6 6
46 45 46 46 45 44 43 43 43 43 42 43 42 39 36 30 24 24 24 20 16 16 15 14 13 13 13 12 11 10 9 9 8 8 8 8 7 8 7 7 8 8 8 9 9 9 10 9 9 9 9 9 9 8 8 8 7 7 7 7 7 7 7 6 6 6 7 7 7 7 7 7 7 7 7 7 6 6 6 6 6 6 6 5 5 5
46 45 44 44 43 42 42 41 41 42 42 43 44 42 37 30 23 24 26 22 19 18 17 17 16 16 16 15 14 13 11 11 10 9 9 9 8 8 8 8 8 9 9 9 10 10 10 10 10 10 10 9 9 9 8 8 8 7 7 7 6 6 6 6 6 6 6 6 6 6 6 6 6 6 6 6 6 6 5 5 5 5 5 5 5 5
49 47 44 43 44 43 41 39 40 43 43 42 43 41 40 35 27 23 25 24 22 21 18 18 19 18 18 18 16 15 13 12 11 10 9 9 9 8 9 8 9 9 9 10 10 10 11 11 10 10 10 10 9 9 8 8 8 7 7 7 6 6 6 6 6 6 6 6 6 6 6 6 6 6 6 5 5 5 5 5 5 5 5 5 5 4
52 50 46 43 44 45 45 44 42 42 41 41 42 42 44 42 29 20 24 26 25 24 21 18 20 20 20 20 17 15 14 12 11 11 10 9 9 9 9 9 9 10 10 10 11 11 11 11 10 10 10 10 9 9 8 8 7 7 6 6 6 6 6 6 6 6 6 6 6 6 6 6 6 6 6 5 5 5 5 5 5 5 5 4 4 4
56 56 54 49 46 47 49 47 43 41 40 38 40 42 45 44 31 20 23 28 25 24 23 20 20 22 22 22 20 16 14 14 12 11 11 10 10 10 9 10 10 10 11 11 11 11 11 10 10 10 9 9 9 8 8 7 7 7 6 6 6 6 6 6 6 6 6 6 6 6 6 6 6 6 6 5 5 5 5 5 5 4 4 4 4 4
59 59 62 61 56 51 49 45 40 37 35 33 36 38 39 41 37 24 22 27 25 21 23 22 21 22 22 22 22 18 15 15 14 12 11 10 10 10 10 10 11 11 11 11 11 11 11 11 11 10 10 10 9 8 8 7 7 6 6 6 6 6 6 6 6 6 6 6 6 6 6 6 6 5 5 5 5 5 5 4 4 4 4 4 3 3
62 61 63 66 65 59 55 51 44 38 35 33 32 31 30 38 47 36 23 25 26 21 21 23 23 24 25 24 24 22 19 17 15 13 12 11 10 10 10 10 11 11 12 12 12 12 12 12 11 11 10 9 9 8 7 7 7 6 6 6 6 6 6 6 7 6 6 6 6 6 6 6 5 5 5 5 5 4 4 4 4 3 3 3 3 3
65 63 63 66 68 66 63 61 56 47 38 31 27 27 28 35 49 46 29 24 29 27 25 27 28 28 29 27 27 27 23 20 18 15 13 12 11 10 10 11 11 12 13 12 13 12 12 12 11 11 10 9 8 8 7 7 7 6 7 7 7 7 7 7 7 6 6 6 6 6 6 5 5 5 5 5 4 4 4 4 4 4 4 4 3 3
66 67 66 66 69 69 66 63 61 53 42 33 27 27 28 28 37 47 40 29 29 31 29 30 32 31 31 31 30 29 27 23 20 19 15 13 12 11 10 11 12 12 13 13 13 13 12 12 12 11 10 9 8 8 7 7 7 7 7 7 7 7 7 7 7 6 6 6 5 6 5 5 5 5 5 5 4 4 4 4 4 4 4 4 3 3
67 68 68 67 67 70 69 65 62 57 49 43 35 28 26 24 27 39 42 33 27 28 29 30 33 34 33 33 32 30 29 25 21 20 17 14 13 12 11 11 12 12 13 13 13 13 12 12 12 11 10 9 8 8 7 7 8 8 8 8 8 8 7 7 7 6 6 6 5 5 5 5 5 5 5 5 5 4 4 4 4 4 3 3 3 3
68 68 70 70 69 69 71 71 70 67 59 49 38 28 24 24 25 29 34 32 27 28 31 32 35 35 34 33 32 31 31 27 22 20 18 15 13 12 11 11 12 12 13 13 13 12 12 12 11 11 10 9 8 8 7 7 8 8 8 8 7 7 7 6 6 5 5 5 5 5 5 5 5 5 5 5 4 4 4 4 4 3 3 3 3 3
69 69 69 71 72 71 72 73 70 69 65 52 39 30 25 25 26 27 29 30 30 31 33 35 35 35 33 33 32 31 30 28 23 18 17 15 13 11 11 11 11 12 12 12 12 12 12 12 11 11 10 9 8 8 8 8 8 8 8 7 7 7 6 6 6 5 5 5 5 5 5 5 5 5 5 5 4 4 4 4 4 4 4 3 3 4
71 71 71 72 74 75 77 78 73 69 69 61 47 36 29 26 27 28 28 29 30 31 33 35 35 35 34 33 32 31 29 28 24 19 15 14 12 11 11 10 11 12 12 12 13 13 12 12 11 11 10 9 8 8 8 8 8 8 7 7 6 6 6 5 5 5 5 5 5 5 5 5 5 5 5 5 4 4 4 4 4 4 4 4 4 4
77 76 75 74 75 75 77 82 83 77 73 69 59 45 35 30 29 30 30 30 30 32 33 35 35 35 33 32 32 32 30 28 27 22 18 15 13 11 11 11 11 12 13 13 13 13 13 12 12 11 10 9 9 9 9 9 8 8 7 6 6 6 5 5 5 5 5 5 5 5 5 5 5 5 5 5 4 4 4 4 4 4 4 4 4 4
79 79 79 77 77 77 77 80 87 87 80 77 72 58 43 34 31 32 33 32 32 33 34 34 35 35 34 33 34 35 34 32 30 28 23 19 15 13 12 11 11 12 13 13 13 14 13 13 12 11 10 10 10 9 10 9 9 8 7 6 6 6 5 5 5 5 5 5 5 5 5 5 5 5 5 5 5 5 4 4 4 4 4 4 4 4
79 79 80 79 77 78 78 76 81 88 88 83 79 68 52 40 33 32 34 34 34 35 35 35 35 36 37 37 36 37 38 36 35 33 29 24 19 16 13 12 12 12 13 14 14 14 14 13 12 11 10 10 10 10 10 10 9 8 7 6 6 6 5 5 5 5 5 5 5 5 4 4 5 4 5 5 5 5 4 4 4 4 3 4 4 4
79 78 78 82 79 76 77 76 75 81 86 85 81 72 60 46 36 33 34 36 36 36 36 36 36 36 38 38 38 38 39 39 38 37 34 29 23 18 15 13 12 13 13 14 14 14 14 13 12 11 10 10 10 10 10 10 9 8 7 6 6 6 6 6 5 5 5 5 5 5 4 4 4 4 5 5 5 5 5 4 4 4 4 4 4 4
82 81 78 81 83 79 77 78 76 76 80 85 87 84 72 55 40 34 34 35 36 37 37 37 37 37 38 38 38 39 39 40 39 38 37 33 27 21 17 13 12 13 13 14 14 14 14 14 12 11 10 10 10 10 10 10 9 7 7 6 6 6 6 6 5 5 5 5 5 5 4 4 4 4 5 5 5 5 5 4 4 4 4 4 4 4
85 86 82 80 85 84 80 79 79 79 79 83 88 91 85 68 48 36 32 34 35 36 36 37 37 38 38 38 38 38 39 40 39 38 37 35 30 24 19 15 13 13 13 14 15 15 15 14 13 12 11 10 10 10 10 9 8 7 7 6 6 6 6 6 6 5 5 5 5 5 5 5 5 5 5 5 5 5 5 5 4 4 4 4 4 4
87 89 87 82 83 86 84 82 81 82 83 84 86 89 91 83 64 44 34 33 35 36 36 37 38 38 39 38 38 38 38 40 40 39 38 36 33 28 22 17 14 13 14 14 15 15 15 14 13 12 11 11 10 10 10 9 8 7 7 7 6 6 6 6 6 6 5 5 5 5 5 5 5 5 5 5 5 5 5 5 5 4 4 4 4 4
88 89 91 87 83 84 87 86 84 82 83 85 87 88 90 89 78 58 41 34 34 36 37 38 39 39 39 39 39 38 39 40 41 41 40 38 35 31 25 19 15 13 14 14 15 15 16 15 14 13 12 11 11 10 10 9 8 7 7 7 7 7 6 6 6 6 5 5 5 5 5 5 5 5 5 4 5 5 5 5 5 4 4 4 4 4
85 86 89 91 88 85 85 86 86 84 82 84 87 89 90 91 85 70 51 38 34 35 36 37 39 40 40 41 41 40 39 40 41 42 41 39 37 34 29 23 17 14 14 14 15 16 16 15 14 14 12 12 11 11 10 9 8 8 7 7 7 7 7 6 6 6 5 5 5 5 5 5 5 5 5 4 4 5 5 5 5 5 4 4 4 4
82 83 86 89 90 87 84 84 84 84 83 83 84 87 88 89 88 79 62 44 35 34 35 36 38 40 41 43 43 42 41 41 41 42 42 41 39 36 33 27 19 15 14 14 15 16 16 15 15 14 13 12 11 11 11 9 8 8 7 7 8 7 7 6 6 6 6 5 5 5 5 5 5 5 5 4 4 4 5 5 6 6 5 4 4 4
81 82 83 87 91 90 87 84 83 83 84 83 83 84 86 88 90 87 74 55 41 35 34 35 37 39 41 42 44 44 43 42 42 43 43 42 40 38 35 30 23 17 15 14 15 16 16 16 15 14 13 12 11 11 11 10 8 8 7 7 8 7 7 7 6 6 6 5 5 5 5 5 5 5 5 5 4 4 4 5 6 6 6 5 4 4
82 80 81 86 91 93 91 89 86 85 84 83 83 85 86 88 91 92 85 68 50 39 35 35 36 38 40 41 43 44 44 43 42 43 43 43 41 39 37 33 26 19 15 15 15 16 16 16 16 15 13 12 12 11 11 10 8 7 7 7 8 7 7 7 6 6 6 6 6 5 5 5 5 5 5 5 5 5 5 4 5 6 6 6 5 4
Wind_Speed
75 77 78 79 79 79 80 80 81 82 83 84 85 86 87 88 89 88 91 93 94 95 95 94 96 98 99 99 100 100 101 101 101 101 102 102 103 103 103 103 102 102 102 102 102 102 102 103 103 103 103 103 103 103 103 103 103 103 103 103 104 104 104 105 105 105 106 106 106 107 107 107 107 107 107 107 107 107 107 106 106 106 106 106 105 105
75 76 78 78 79 80 81 81 82 83 85 86 87 88 90 91 91 91 93 95 96 97 96 95 96 97 97 97 98 98 99 98 99 99 100 101 101 102 102 101 101 101 101 100 100 101 101 101 102 102 103 103 103 103 103 103 103 103 104 104 104 104 105 105 105 106 106 106 107 107 107 107 107 107 108 108 108 108 108 108 108 107 107 107 107 107
76 77 79 80 81 82 83 83 85 86 87 88 88 90 91 92 93 93 93 95 97 97 96 96 96 95 94 95 95 96 96 97 98 98 99 100 101 101 101 101 101 101 101 101 101 101 102 102 102 103 103 103 104 104 104 104 105 105 105 106 106 106 106 107 107 107 108 108 108 109 109 109 109 109 109 110 110 110 110 110 110 110 110 110 109 109
79 79 80 82 83 84 84 84 85 87 88 88 88 89 91 92 92 92 92 94 95 95 94 94 94 93 93 94 94 95 95 97 97 98 99 100 101 101 102 102 102 102 102 102 102 102 103 103 103 104 104 104 105 105 106 106 107 107 107 108 108 109 109 109 109 110 110 110 110 111 111 111 111 111 111 111 111 112 112 112 112 112 112 112 112 112
79 79 80 80 81 81 82 83 83 84 86 87 87 88 89 90 91 91 91 91 92 92 93 93 93 93 93 94 94 94 95 97 98 99 99 100 101 102 102 102 102 102 102 103 103 103 104 104 104 105 105 105 106 106 107 108 108 109 109 110 110 110 111 111 112 112 112 112 113 113 113 113 113 113 113 113 114 114 114 114 115 115 115 115 115 115
75 76 76 77 78 78 79 80 81 81 83 84 85 86 86 87 88 88 89 91 91 91 92 93 94 94 93 93 92 93 95 97 97 98 100 101 102 102 102 102 102 102 102 103 103 103 104 104 104 105 105 106 106 107 107 108 108 109 109 110 110 111 111 112 112 113 113 113 114 114 114 115 115 115 115 115 115 116 116 116 117 117 117 117 117 117
71 72 73 74 75 75 76 77 78 79 80 82 83 84 85 86 87 87 88 89 91 91 90 91 93 94 93 90 89 90 92 94 95 97 98 99 100 100 99 99 100 100 100 101 101 102 102 102 103 103 104 104 105 105 106 106 107 108 108 109 109 110 111 111 112 113 113 114 114 114 115 115 116 116 116 116 116 116 117 117 117 118 118 118 118 118
69 70 71 72 73 74 74 75 76 77 78 80 81 81 82 83 84 85 85 86 87 88 87 88 90 91 91 88 85 86 88 90 93 94 96 96 97 97 96 97 97 98 98 99 99 100 100 101 101 101 102 102 103 104 104 105 106 107 107 108 109 109 110 111 111 112 113 113 114 114 114 115 115 115 116 116 116 116 116 116 117 117 117 118 118 118
68 68 69 70 71 71 72 73 74 74 75 76 77 78 78 80 81 81 82 82 84 85 85 87 88 89 90 89 85 85 87 89 91 93 94 96 96 96 96 96 97 98 98 99 99 100 100 101 101 102 102 103 103 104 104 105 106 107 107 108 109 109 110 111 111 112 113 113 113 114 114 114 115 115 115 115 116 116 116 117 117 117 117 118 118 118
64 65 65 66 67 68 69 70 70 71 72 73 74 75 76 77 79 80 81 81 83 84 84 86 88 89 90 89 86 86 88 90 90 91 94 96 97 97 97 98 98 99 100 100 101 102 102 103 103 104 104 104 105 106 106 107 108 108 109 110 110 111 111 112 112 113 113 114 114 115 115 115 116 116 117 117 117 117 118 118 118 118 118 119 119 119
61 61 62 63 64 65 66 67 69 70 71 72 72 73 74 76 77 79 81 82 83 85 85 86 89 91 92 91 89 89 90 91 91 92 93 96 98 99 99 100 100 101 102 102 103 104 104 105 106 106 106 107 107 108 109 109 110 111 111 112 113 113 114 114 115 116 116 116 117 117 118 118 118 119 119 119 120 120 120 120 121 121 121 121 122 122
59 60 61 63 63 65 66 67 69 70 72 73 74 74 76 77 79 81 83 84 85 86 88 89 91 94 95 95 95 94 94 94 94 95 96 98 99 101 102 103 104 104 105 105 106 107 107 108 108 109 109 110 110 111 112 112 113 114 114 115 115 116 116 117 118 118 119 119 120 120 121 121 121 122 122 122 123 123 123 124 124 124 125 125 125 125
60 61 63 64 66 67 68 70 71 72 74 75 76 77 77 79 80 82 84 85 86 88 89 91 92 93 94 96 97 98 97 97 96 96 97 98 100 101 103 104 105 106 107 108 109 109 110 111 111 112 112 113 114 114 115 116 116 117 118 118 119 119 120 120 121 122 122 123 123 123 124 124 124 125 125 126 126 126 127 127 127 128 128 128 129 129
62 63 65 66 67 69 70 71 72 74 75 76 77 78 78 79 79 81 83 84 85 86 88 90 91 91 92 93 95 96 96 96 96 95 95 96 97 98 100 101 103 104 105 106 108 109 110 111 112 112 113 114 115 115 117 118 118 119 120 121 121 122 123 124 124 125 126 126 127 127 128 128 128 129 129 129 130 130 130 131 131 131 132 132 133 133
62 63 64 65 66 68 68 69 70 71 72 73 74 75 75 76 76 77 78 79 80 80 82 85 86 87 88 88 90 92 93 93 93 93 94 94 94 95 96 97 98 99 101 102 103 105 106 107 108 109 110 111 112 113 114 116 117 118 119 120 121 122 123 124 125 126 127 128 128 129 129 130 130 131 132 132 133 133 134 134 134 135 135 136 136 137
58 59 61 61 62 63 64 65 66 66 67 68 68 69 70 71 71 72 74 75 75 75 76 78 79 81 82 83 84 86 87 88 89 90 90 91 91 92 93 94 95 96 97 98 99 101 102 103 104 105 107 108 108 109 110 112 113 115 116 116 117 118 119 121 122 123 124 125 126 127 128 128 129 130 130 131 132 133 134 134 135 135 136 136 137 137
53 54 55 56 57 58 59 59 60 61 62 63 63 64 65 67 67 68 69 71 71 72 73 74 75 76 77 78 80 81 82 83 85 86 87 88 88 90 90 91 92 93 94 95 96 97 99 100 100 102 104 105 105 106 107 109 110 111 112 113 114 115 116 117 118 119 120 121 122 123 124 125 126 127 128 129 130 130 131 132 132 133 133 134 135 135
50 50 51 52 52 53 54 55 56 57 58 58 59 60 61 62 63 64 64 65 65 66 68 71 72 71 71 72 73 75 77 77 79 81 82 84 85 86 88 89 89 91 92 93 93 94 95 97 98 99 101 102 103 103 104 106 107 109 110 110 111 112 113 114 115 116 117 118 119 120 121 122 123 124 125 126 127 128 129 129 130 131 131 132 132 133
48 48 49 49 49 50 50 51 52 53 54 54 55 55 56 57 59 61 62 61 61 62 63 67 70 69 69 69 70 71 72 72 72 73 75 77 79 80 81 84 85 86 88 89 90 91 92 93 94 95 97 98 99 100 101 102 104 105 106 107 108 109 110 111 112 113 114 115 116 117 118 119 120 121 122 123 124 125 126 127 128 128 129 130 130 131
45 45 46 47 47 48 48 48 49 50 52 53 55 56 57 59 61 63 65 66 66 66 66 68 71 72 72 72 73 73 73 73 72 72 72 73 74 75 76 77 79 81 82 84 85 86 88 89 90 91 92 93 95 96 97 98 100 101 102 103 104 105 106 107 108 109 110 112 113 114 115 116 117 118 119 120 121 122 123 124 125 126 126 127 128 128
46 47 47 47 48 49 50 51 51 52 53 54 55 56 58 59 62 64 66 68 69 69 69 69 70 71 72 73 74 74 73 74 74 74 74 74 74 74 74 75 76 77 79 80 81 82 84 85 85 86 87 88 90 91 93 94 95 96 98 99 100 101 102 103 104 105 106 108 109 110 111 112 113 114 116 117 118 119 120 121 121 122 123 124 125 125
47 47 48 49 49 50 51 52 53 54 55 55 55 55 55 56 59 62 63 65 66 67 68 69 68 68 69 70 71 71 71 71 72 72 72 72 73 73 73 74 75 76 77 78 79 80 81 82 82 83 83 84 86 87 88 90 91 92 93 94 96 97 98 99 100 101 102 104 105 106 107 108 109 110 111 112 114 115 116 116 117 118 119 120 121 121
46 46 46 46 47 47 47 48 49 51 52 54 54 55 55 55 56 59 61 61 62 63 63 64 65 64 64 66 67 68 68 68 69 69 69 69 70 70 70 71 71 73 74 75 76 76 78 79 79 80 81 82 83 84 85 87 88 89 90 91 92 93 95 96 97 98 99 100 101 102 103 104 105 106 107 108 109 110 111 112 113 113 114 115 116 117
45 44 43 43 43 43 44 44 45 46 47 49 51 51 52 52 53 55 57 58 58 59 58 59 61 61 59 60 61 62 63 64 66 67 67 67 67 68 68 69 69 70 71 72 73 73 74 75 76 77 78 79 80 81 82 83 85 86 87 88 89 90 92 93 94 95 96 97 98 99 100 101 102 103 104 105 106 107 107 108 109 110 110 111 111 112
43 43 42 42 42 42 43 43 43 44 44 46 47 48 48 48 49 51 54 55 55 57 57 57 59 61 60 59 58 58 59 60 61 63 64 64 65 65 66 67 67 68 69 70 70 71 72 72 73 74 75 76 77 79 80 81 82 83 84 85 86 87 88 90 91 92 93 95 96 97 98 99 100 101 102 103 104 105 105 106 107 108 108 109 109 110
45 45 44 44 43 43 43 43 44 44 45 47 48 49 49 48 48 51 54 55 55 57 58 58 58 61 63 62 62 61 60 59 59 59 60 61 62 63 64 64 65 65 66 67 68 69 70 71 72 73 74 76 77 78 79 80 81 82 82 83 84 85 86 87 88 89 90 91 92 94 95 96 97 98 99 100 101 102 103 104 104 105 106 107 107 108
47 47 47 47 46 46 46 47 47 48 48 50 52 53 53 53 51 52 55 57 56 56 58 59 59 61 63 64 65 65 65 65 64 63 62 62 62 63 64 64 65 65 65 66 67 69 70 71 73 74 75 77 78 79 80 80 81 81 82 82 83 84 84 85 86 86 87 88 89 90 91 92 93 94 95 96 97 98 99 100 101 102 103 103 104 105
49 49 49 49 49 49 49 50 51 52 52 53 55 57 58 57 56 55 56 58 58 58 58 59 61 62 63 64 64 65 65 66 66 66 64 64 64 64 64 65 65 66 66 67 67 68 70 71 73 74 76 77 78 79 80 80 81 81 81 81 82 82 83 83 83 84 85 85 86 87 88 89 90 91 92 93 94 95 96 97 97 98 99 99 100 100
52 51 51 52 53 53 53 53 54 55 56 56 58 59 61 61 59 57 57 58 60 60 59 58 59 61 62 63 64 64 64 64 65 65 64 64 64 65 65 65 65 66 66 67 67 68 69 71 72 74 75 76 77 78 79 79 79 80 79 79 80 80 80 81 81 82 82 83 84 85 86 87 88 89 90 90 91 92 92 93 94 94 95 95 95 95
54 55 54 54 55 56 57 57 56 57 57 58 60 61 62 63 62 59 59 60 60 60 60 59 58 59 61 63 64 64 64 64 65 66 65 65 65 65 65 65 65 65 66 66 67 68 69 70 71 73 74 75 76 76 77 77 77 77 77 77 77 78 78 78 79 80 80 81 82 83 84 84 85 86 87 87 88 88 89 89 90 90 90 91 91 90
57 58 58 57 57 57 58 58 59 59 59 60 61 62 63 64 64 62 61 60 60 60 61 61 60 60 61 63 65 65 64 65 66 65 65 65 65 65 65 65 65 65 65 66 66 67 69 70 72 73 74 75 75 76 75 75 75 75 75 75 76 76 76 77 77 78 79 80 80 81 82 82 83 83 84 84 84 85 85 86 86 86 87 87 87 87
61 61 62 62 62 61 60 60 60 60 61 61 62 62 63 65 67 66 63 62 61 60 60 61 62 62 62 63 65 66 65 65 66 65 65 65 65 64 64 64 64 64 65 65 66 68 69 71 72 73 74 74 75 74 74 74 74 74 73 74 74 75 75 75 76 77 77 78 78 79 79 80 81 81 81 81 81 82 82 83 83 83 83 83 83 83
64 64 64 65 66 66 65 65 65 64 64 64 63 64 65 66 69 69 66 65 65 63 62 63 64 65 65 65 66 68 68 67 67 67 65 65 65 64 64 64 63 64 65 65 66 68 69 71 72 73 73 73 73 73 72 72 72 72 72 72 72 73 73 74 74 75 76 76 76 77 77 78 78 79 79 79 80 80 80 81 81 81 80 80 80 80
68 68 68 68 69 69 69 69 69 69 68 67 66 67 67 67 68 70 70 68 67 67 66 66 66 67 68 68 69 70 70 69 69 69 68 67 66 65 65 65 65 65 65 65 66 68 69 70 72 72 72 72 72 71 71 70 70 70 70 70 71 71 71 72 73 73 74 74 75 75 75 76 76 77 77 77 78 78 78 79 78 78 78 78 78 77
72 72 72 72 72 72 72 72 72 72 72 71 71 70 69 68 68 70 72 70 68 68 67 67 68 69 70 71 71 72 72 72 71 71 71 70 70 69 68 67 66 65 65 66 67 68 69 71 72 72 72 72 71 71 70 69 69 69 69 70 70 70 70 71 72 72 73 73 73 73 73 74 74 74 74 75 75 76 76 76 75 75 75 75 74 73
75 76 76 76 75 75 75 75 75 75 75 74 73 72 70 69 68 68 70 70 69 68 68 68 70 71 72 72 73 73 74 74 73 73 72 71 71 71 70 68 68 67 67 67 68 69 70 71 72 72 72 72 71 70 69 69 69 69 69 69 69 69 70 71 71 72 72 72 72 71 71 72 72 72 72 72 73 73 73 72 72 72 72 71 70 69
78 78 79 79 80 79 79 79 79 78 77 76 75 74 72 71 70 68 68 69 69 69 69 70 71 72 73 73 74 74 75 75 74 73 72 72 71 71 70 70 69 68 68 68 69 70 71 72 72 72 72 72 71 70 69 68 68 68 68 68 68 69 69 70 70 70 70 70 70 69 69 69 69 69 70 70 70 70 70 70 69 69 68 67 66 65
80 81 82 83 83 84 83 82 81 80 80 78 77 76 75 73 72 70 69 69 69 69 70 70 71 73 74 74 75 75 75 76 75 73 72 71 70 70 70 70 69 69 69 69 70 71 72 73 73 73 73 72 71 70 69 68 67 67 67 68 68 68 68 69 69 69 69 68 68 67 67 67 67 67 68 68 68 68 67 68 68 67 66 65 64 63
82 84 84 85 86 86 87 87 86 84 83 82 81 79 78 76 74 72 70 69 69 69 70 71 72 74 74 75 76 76 75 76 76 75 73 72 71 71 71 70 70 70 70 70 71 72 73 73 73 73 73 72 71 70 70 69 68 68 67 67 67 67 67 68 67 67 67 66 66 66 65 65 65 65 65 66 66 66 65 66 66 65 64 62 61 61
82 84 85 87 88 88 89 90 90 89 87 86 84 83 80 79 77 75 73 71 71 71 72 73 74 75 76 76 77 78 78 78 79 79 77 76 75 74 73 73 72 72 71 71 71 73 74 74 75 74 74 73 72 71 71 70 69 69 68 68 68 67 67 67 66 66 65 64 64 64 64 63 63 63 63 63 64 64 64 64 64 63 62 60 58 58
81 83 85 87 89 90 90 91 92 92 92 90 88 86 83 81 79 78 77 76 75 75 75 75 76 77 79 79 80 81 82 82 82 82 82 81 79 78 77 76 75 74 73 72 72 73 74 75 75 75 74 73 72 72 71 71 70 69 69 69 68 68 67 66 66 65 64 64 63 63 63 62 61 61 61 60 61 62 62 62 62 61 59 57 55 55
81 83 85 87 88 90 91 92 92 93 94 93 91 89 87 85 82 81 80 80 79 79 78 79 79 80 81 82 83 83 84 85 85 86 86 85 83 82 80 79 78 77 75 74 74 75 76 76 76 76 75 74 73 72 72 71 71 70 69 69 68 68 67 66 66 65 64 63 63 63 62 60 59 59 58 58 58 60 61 61 60 58 56 55 53 53
81 82 84 87 89 90 92 93 93 94 95 96 95 93 91 89 86 83 82 81 81 81 81 81 82 82 83 84 85 86 86 87 87 88 88 88 87 85 84 82 80 79 78 77 76 76 77 78 78 77 76 75 74 73 72 72 71 70 69 69 68 68 67 66 65 65 64 62 62 61 61 59 58 57 56 56 56 58 59 60 59 57 54 52 52 51
81 83 85 87 90 92 93 95 96 97 97 98 99 98 96 93 89 86 84 83 82 82 83 83 84 85 85 86 86 87 87 88 88 89 89 89 89 87 86 84 83 81 80 79 78 78 79 80 80 79 78 77 75 74 73 72 71 70 70 69 69 68 67 66 65 65 63 62 60 60 59 58 57 56 55 55 55 56 58 59 58 56 53 50 49 49
81 83 85 87 89 92 94 96 98 100 100 100 101 101 100 97 94 90 87 85 85 85 85 85 86 87 87 88 88 88 88 89 89 89 90 90 90 89 88 86 84 83 82 80 79 79 80 81 81 81 80 78 76 75 74 72 72 71 70 70 69 68 67 66 65 65 63 61 60 59 59 58 57 55 54 53 53 54 56 58 58 55 51 49 47 47
81 83 85 86 88 90 93 95 97 99 101 101 102 102 101 100 97 94 91 89 87 87 87 87 88 88 89 89 89 89 89 90 90 90 91 91 91 90 89 88 86 85 83 82 81 80 81 82 83 82 82 80 78 76 75 74 73 72 71 71 70 69 68 67 65 64 63 61 59 58 58 58 57 56 54 53 51 51 53 56 57 55 51 48 46 44
79 82 84 86 87 89 91 94 96 98 100 101 103 103 103 102 100 97 94 91 89 88 88 88 89 90 90 91 91 91 91 91 91 92 92 92 92 91 91 89 88 86 85 83 82 81 82 83 84 84 83 82 80 78 76 75 74 73 72 71 71 70 68 67 65 64 63 62 60 58 58 58 58 57 55 53 51 50 50 53 55 54 51 47 45 43
79 80 83 85 87 88 90 93 95 98 99 101 102 103 104 104 102 100 96 93 91 90 89 89 90 91 92 93 93 93 92 92 92 93 93 93 93 92 92 91 89 87 86 85 83 82 82 83 84 84 84 82 81 79 77 76 75 74 72 71 71 70 69 67 65 64 63 62 60 59 58 58 58 57 56 54 51 49 48 50 53 54 51 46 44 43
79 81 82 84 86 88 90 91 94 96 98 100 102 103 104 105 105 103 99 96 93 92 91 91 91 91 92 93 94 94 94 93 93 93 94 94 94 94 93 93 91 89 88 86 84 83 83 84 84 85 84 83 81 80 78 77 76 74 73 71 70 70 69 67 65 64 63 62 61 59 58 57 57 57 56 55 52 49 46 45 49 53 53 48 44 43
80 81 83 85 87 89 91 92 94 96 98 100 102 104 106 107 107 106 103 100 97 94 93 92 92 92 93 93 94 95 95 94 94 94 94 95 95 95 95 94 93 91 89 88 86 84 84 84 85 85 85 84 82 80 79 78 76 75 73 71 70 69 68 67 66 64 63 62 62 60 59 57 57 57 56 54 53 50 47 43 43 47 52 51 46 42
81 82 83 85 87 89 92 94 96 97 99 101 103 105 107 108 109 109 107 104 100 97 96 95 94 94 94 95 95 95 96 95 95 95 95 95 95 95 95 95 94 92 90 89 88 86 85 85 86 86 86 85 83 81 80 79 77 75 73 71 70 68 67 66 65 64 63 63 62 61 60 58 57 56 56 54 52 51 49 46 42 40 44 50 49 44
Wind_Direction
279 279 279 280 280 280 280 281 281 281 281 281 281 281 281 280 280 280 280 280 280 279 279 279 278 279 279 279 279 278 278 278 278 278 277 277 277 277 277 277 277 277 277 276 276 276 276 276 276 276 276 276 276 276 276 276 276 276 275 275 275 275 275 274 274 274 274 274 274 273 273 273 273 273 273 273 272 272 272 272 271 271 271 270 270 270
280 280 281 281 281 281 282 282 282 281 281 281 281 281 281 280 281 280 280 280 280 280 279 279 278 278 278 278 278 278 278 278 277 277 277 277 277 277 277 277 277 277 277 276 276 276 276 276 276 276 276 276 276 276 276 276 276 276 275 275 275 275 274 274 274 274 274 274 273 273 273 273 273 273 273 273 273 273 273 272 272 272 272 271 271 271
281 281 281 282 282 282 282 282 281 281 280 280 280 280 280 280 280 280 280 279 279 279 279 279 278 278 278 278 277 277 277 277 277 277 277 277 277 277 277 276 276 276 276 276 276 276 276 276 276 276 276 276 276 276 276 276 276 275 275 275 275 274 274 274 274 274 273 273 273 273 273 273 273 273 273 273 273 273 273 273 273 272 272 272 272 271
281 281 280 281 281 281 281 281 280 280 280 280 279 279 279 279 279 279 279 278 278 279 279 278 278 278 278 277 277 277 277 277 277 277 277 277 276 276 276 276 276 276 276 276 276 276 276 276 276 276 275 275 275 275 275 275 275 275 275 274 274 274 274 274 274 274 274 273 273 273 273 273 273 273 272 272 272 272 272 272 272 272 272 271 271 271
281 280 280 279 279 279 279 279 279 279 279 280 279 279 279 279 280 280 279 279 279 279 279 279 279 278 278 278 278 278 278 278 278 277 277 277 276 276 276 276 276 276 276 276 276 276 276 276 275 275 275 275 275 275 275 274 274 274 274 274 274 274 274 274 274 274 274 274 274 273 273 273 273 272 272 272 272 271 271 271 271 270 270 270 270 269
281 281 280 280 280 279 279 279 279 279 279 279 280 280 280 280 280 280 280 280 280 279 279 280 279 278 278 278 279 279 279 279 279 278 278 277 277 277 277 277 277 277 277 277 277 276 276 276 276 276 275 275 275 275 275 275 275 275 275 275 275 275 274 274 274 274 274 274 273 273 273 273 272 272 272 271 271 271 271 270 270 270 269 269 269 269
281 281 281 281 281 280 280 280 280 280 280 280 280 281 281 281 281 280 280 281 280 280 280 280 279 279 278 278 278 279 279 279 279 278 277 277 277 277 278 278 277 277 277 277 277 277 277 277 276 276 276 276 276 276 276 276 275 275 275 275 274 274 274 274 274 274 274 273 273 273 273 273 273 272 272 272 272 271 271 271 271 271 270 270 270 269
283 283 283 283 282 282 282 282 281 281 281 281 281 281 281 281 281 281 281 281 281 281 280 280 280 280 279 278 278 278 278 278 278 278 278 278 278 278 278 278 278 278 277 277 277 277 277 277 276 276 276 276 276 276 275 275 275 275 275 275 275 274 274 274 274 274 274 274 274 274 273 273 273 273 273 273 273 273 272 272 272 271 271 271 270 270
285 285 285 285 284 284 284 284 283 283 283 283 283 283 282 282 282 282 282 282 282 282 282 282 281 281 280 280 279 279 278 277 277 278 279 279 279 279 279 279 278 278 278 278 277 277 277 277 276 276 276 276 276 275 275 275 275 275 275 275 275 275 275 275 275 275 275 274 274 274 274 274 274 274 274 273 273 273 272 272 272 271 271 271 270 270
288 288 288 287 287 287 286 286 285 285 284 284 284 284 284 284 284 284 283 283 283 283 283 283 283 282 281 281 281 280 279 278 278 279 279 279 279 279 279 279 279 278 278 278 278 278 277 277 277 277 276 276 276 276 276 275 275 275 275 275 275 275 275 275 275 274 274 274 274 274 274 274 274 274 273 273 273 273 272 272 272 272 271 271 271 270
291 291 290 289 288 287 287 286 286 285 285 284 284 284 284 284 284 284 284 284 284 284 284 284 283 283 283 283 282 281 280 280 279 279 279 279 279 280 279 279 279 279 278 278 278 278 278 278 277 277 277 277 276 276 276 276 275 275 275 275 275 275 274 274 274 274 274 274 274 274 274 274 274 274 273 273 273 273 273 272 272 272 272 271 271 271
291 290 289 288 288 287 287 286 286 285 285 285 285 284 284 284 284 284 284 284 284 284 284 284 283 284 284 285 284 283 282 281 281 280 279 279 279 279 279 279 279 279 278 278 278 278 278 277 277 277 277 277 276 276 276 276 276 275 275 275 275 275 275 274 274 274 274 274 274 274 274 274 274 273 273 273 273 273 273 273 273 272 272 272 272 271
292 292 291 290 290 289 289 288 288 287 287 286 286 286 285 285 285 285 285 285 285 285 284 284 283 284 284 284 284 284 283 282 281 281 280 279 279 278 278 278 278 278 278 278 278 278 277 277 277 277 276 276 276 276 276 275 275 275 275 275 275 275 275 274 274 274 274 274 274 274 274 274 274 273 273 273 273 273 273 273 273 273 273 272 272 272
294 293 292 292 291 291 290 290 289 289 289 288 288 287 287 287 286 286 286 286 286 286 286 286 286 285 285 285 285 285 285 285 284 283 282 281 280 279 279 279 278 278 278 278 278 278 277 277 277 277 277 276 276 276 276 275 275 275 275 275 274 274 274 274 274 274 274 274 274 274 274 274 274 273 273 273 273 273 273 273 273 273 272 272 272 272
295 294 294 293 292 292 292 291 290 290 290 290 290 290 289 289 288 288 287 286 286 286 286 286 287 287 287 286 286 286 286 286 286 285 285 284 283 282 281 280 280 279 279 278 278 278 277 277 277 277 277 276 276 276 276 275 275 275 275 275 275 274 274 274 274 274 274 274 274 274 274 274 273 273 273 273 273 273 273 272 272 272 272 272 272 272
297 296 295 295 294 294 293 293 293 292 292 292 291 292 291 291 291 290 289 289 289 288 288 288 288 288 288 288 287 287 287 287 287 287 286 285 285 284 283 282 282 281 280 280 279 279 279 278 278 278 277 277 277 276 276 276 276 275 275 275 275 275 275 275 274 274 274 274 274 274 274 274 274 273 273 273 273 273 273 272 272 272 272 271 271 271
300 300 299 298 297 297 296 296 296 295 295 295 295 295 295 295 294 293 293 294 294 294 293 292 291 291 290 290 290 289 289 289 288 288 287 287 286 286 285 284 283 283 282 282 281 281 280 280 280 279 279 279 278 278 278 277 277 277 277 276 276 276 276 276 275 275 275 275 275 275 274 274 274 274 274 273 273 273 273 273 272 272 272 272 271 271
307 306 305 304 303 302 302 301 301 300 299 299 299 299 298 297 296 295 295 295 295 295 295 295 294 293 292 291 290 290 289 288 288 288 288 287 287 286 286 285 285 284 284 283 283 282 282 281 281 281 280 280 280 280 279 279 279 279 278 278 278 277 277 277 277 276 276 276 276 275 275 275 275 275 274 274 274 274 273 273 273 273 273 272 272 272
313 312 310 309 308 306 305 304 304 303 303 302 301 301 301 301 301 301 301 300 300 300 301 301 301 300 299 298 297 295 294 293 292 290 289 288 287 287 286 286 286 285 285 284 284 283 283 282 282 281 281 281 281 281 280 280 280 280 280 279 279 279 278 278 277 277 277 277 276 276 276 275 275 275 275 274 274 274 274 274 274 273 273 273 273 272
317 316 315 314 313 312 311 310 310 310 310 310 310 310 310 310 310 310 310 309 308 308 308 307 306 306 306 305 303 302 302 301 300 298 296 294 292 291 290 289 288 287 286 285 285 284 284 284 283 283 283 283 282 282 282 282 281 281 281 280 280 279 279 278 278 277 277 277 276 276 276 276 275 275 275 275 275 274 274 274 274 274 274 274 273 273
324 323 322 321 320 320 320 319 318 318 318 317 316 315 314 313 313 312 311 309 309 309 308 307 306 306 306 305 304 304 304 303 302 301 300 299 297 296 294 293 292 290 289 288 288 287 286 286 286 285 285 285 284 284 283 283 282 282 282 281 281 280 280 279 279 278 278 277 277 277 277 276 276 276 276 276 275 275 275 275 275 274 274 274 274 274
329 328 327 326 326 325 324 323 322 321 319 318 316 314 313 312 310 309 308 308 308 308 308 307 307 307 306 305 304 304 304 303 302 301 300 299 298 297 296 295 294 293 292 291 291 290 290 289 289 289 288 287 287 286 286 285 285 284 284 283 283 282 282 281 280 280 279 279 278 278 278 277 277 277 277 276 276 276 276 276 276 275 275 275 275 275
332 331 330 329 327 326 324 322 321 320 319 318 316 315 313 312 310 309 308 308 308 309 309 309 308 307 307 306 305 305 305 304 304 302 301 300 299 298 297 296 295 294 293 293 292 292 291 291 291 291 290 290 289 289 288 288 287 287 286 286 285 284 284 283 283 282 281 281 280 280 279 279 279 278 278 277 277 277 277 277 276 276 276 276 276 276
334 333 331 330 328 326 325 323 322 320 319 317 315 313 312 313 313 312 311 310 311 310 310 310 308 308 308 309 309 309 308 308 307 306 305 304 303 302 301 299 298 297 296 295 295 294 294 293 293 292 292 291 291 290 289 289 288 287 287 287 286 286 285 285 284 284 284 283 283 282 282 281 281 280 280 280 279 279 279 279 278 278 278 277 277 276
336 335 333 333 332 331 329 327 326 323 321 319 317 316 317 318 318 316 315 316 317 316 315 316 317 316 315 315 315 314 313 312 311 310 308 307 306 305 303 302 301 300 299 298 297 296 296 295 295 294 294 293 293 292 292 291 290 289 289 288 287 286 286 285 285 284 284 284 283 283 283 282 282 282 282 281 281 281 281 280 280 280 279 279 279 278
341 340 339 338 337 335 333 332 331 329 328 327 326 326 326 327 327 326 325 325 326 326 325 325 326 325 323 321 320 320 319 318 315 312 311 310 308 307 305 304 303 302 301 300 300 299 299 298 298 298 298 297 297 296 296 295 294 293 292 291 290 289 288 287 287 286 285 285 284 284 283 283 283 282 282 282 282 281 281 281 280 280 280 279 279 279
347 346 345 344 343 341 340 339 338 338 337 336 335 335 335 335 336 336 334 332 333 334 333 332 332 331 330 329 328 327 326 324 322 320 319 317 315 312 311 309 308 307 305 305 304 303 303 303 303 302 302 301 301 300 299 298 297 297 296 295 293 292 291 290 290 289 288 287 287 286 285 285 284 284 283 283 282 282 281 281 280 280 280 279 279 279
352 351 350 349 349 348 347 346 345 344 344 343 342 341 340 340 341 341 340 337 337 338 339 338 337 336 335 334 333 331 330 329 326 325 324 321 319 317 315 314 312 311 310 308 307 307 306 305 305 304 304 303 303 302 301 301 300 299 298 297 296 295 294 293 292 291 290 289 288 288 287 287 286 285 285 284 283 283 282 282 282 281 281 281 280 280
357 356 355 355 354 354 352 352 351 349 348 347 346 345 344 344 343 344 343 342 341 341 341 341 340 339 338 337 336 334 333 331 328 327 325 323 322 320 318 317 315 313 312 311 310 308 308 307 306 306 305 305 304 304 303 302 301 301 299 298 297 296 295 294 293 292 291 291 290 289 288 287 287 286 286 285 285 284 284 283 283 283 282 282 281 281
0 360 359 358 358 357 356 355 354 353 351 350 349 348 347 345 344 345 346 346 344 343 342 342 342 342 340 339 338 336 335 334 331 330 329 327 325 323 321 319 317 316 314 313 312 310 309 309 308 308 307 307 306 306 305 304 303 302 301 300 299 297 296 296 295 294 293 292 291 290 289 289 288 287 287 287 286 286 285 285 284 284 283 283 283 282
3 3 2 1 1 0 359 357 356 355 353 352 351 350 348 346 345 346 348 348 346 345 344 343 344 344 343 342 340 339 338 337 335 333 331 329 327 325 323 322 320 318 316 315 314 313 312 312 312 311 311 310 310 309 308 307 306 304 303 302 300 299 298 297 296 295 294 293 293 292 291 291 290 289 289 289 288 288 287 286 286 285 285 284 284 284
6 6 5 3 2 2 1 359 358 357 355 354 353 351 350 349 347 347 349 349 347 346 346 345 345 345 345 345 343 341 341 340 337 335 334 331 329 327 326 324 322 320 318 317 317 316 316 316 315 315 314 313 312 311 310 309 308 306 305 304 302 301 300 299 298 297 296 295 295 294 294 293 292 292 291 291 290 289 289 288 287 287 287 286 286 286
8 8 7 6 4 3 2 1 360 359 358 357 355 354 353 353 350 347 349 350 348 347 348 347 347 347 347 347 346 344 343 343 340 337 336 334 332 330 328 327 325 323 321 321 320 319 319 318 318 317 317 316 315 314 313 311 310 308 307 305 304 303 302 301 300 299 298 297 297 296 296 295 295 294 293 293 292 291 291 290 290 290 289 289 289 288
11 10 9 8 7 5 4 3 2 0 359 358 358 357 356 355 352 348 349 351 351 349 350 349 349 349 349 348 349 347 346 345 344 341 339 337 335 333 331 330 328 327 325 323 323 322 321 321 321 320 319 319 318 316 315 313 311 310 308 307 306 305 304 303 302 301 300 299 299 298 298 297 296 296 295 294 294 293 292 292 292 292 291 291 290 290
12 11 10 10 8 7 6 5 3 2 1 360 359 359 357 356 355 352 350 351 352 351 351 351 350 350 350 350 350 349 348 347 347 344 342 340 338 336 335 333 331 329 327 326 325 325 324 324 324 323 323 322 321 319 317 316 314 313 311 310 309 308 306 305 304 303 302 302 301 300 299 299 298 297 296 296 295 294 293 293 293 292 292 291 291 291
13 12 11 10 10 9 7 6 5 4 3 1 0 359 358 358 358 356 352 351 352 352 351 352 351 351 352 351 351 350 349 348 348 347 344 343 341 339 337 336 334 332 330 329 328 328 327 327 327 326 326 324 323 322 320 318 317 315 314 312 311 310 309 308 307 306 305 304 303 303 302 301 300 299 298 297 296 295 295 294 294 293 292 292 293 293
13 12 12 11 10 10 9 7 6 5 4 3 1 0 359 359 359 358 355 353 353 353 353 353 352 352 352 352 351 351 350 349 348 348 346 344 342 340 339 338 336 334 332 331 331 330 330 330 330 329 328 327 325 324 322 320 319 317 316 315 314 312 311 310 309 308 307 306 305 305 303 302 302 301 300 299 298 297 297 296 295 295 295 295 294 294
12 11 11 11 10 10 9 8 7 6 5 3 2 1 0 360 359 359 357 356 355 355 354 353 353 353 353 353 352 351 351 349 348 348 347 345 344 342 340 339 338 336 334 333 333 333 333 333 332 332 330 329 327 326 324 323 321 320 318 317 316 314 313 312 311 310 309 308 307 306 305 304 304 303 302 301 300 300 299 298 297 297 297 297 296 295
10 10 10 10 10 10 9 8 7 7 6 4 3 2 1 360 359 359 358 357 356 356 356 355 354 354 353 353 352 351 351 350 349 348 348 347 345 344 343 341 340 338 337 336 336 336 335 335 334 334 332 331 329 328 326 325 324 322 321 319 318 317 315 314 313 312 311 310 309 308 308 307 306 305 304 303 302 302 301 300 299 299 299 298 297 296
9 9 9 9 9 9 9 9 7 6 6 5 4 3 2 360 359 359 358 358 357 357 357 356 356 355 354 354 354 352 352 351 351 349 349 348 347 346 345 344 343 341 339 339 338 338 337 337 336 336 334 333 332 330 329 327 326 325 323 322 320 319 318 316 315 315 314 313 312 311 310 309 309 307 306 305 304 303 302 301 301 301 300 300 299 297
8 8 8 8 8 8 9 9 8 6 6 6 5 3 2 1 359 358 358 358 358 358 358 357 357 356 355 355 355 354 353 352 352 351 351 350 350 348 347 346 345 343 342 341 340 340 339 339 338 338 336 335 334 332 331 330 328 327 326 324 323 322 320 319 318 318 317 316 315 313 312 312 311 309 308 307 306 305 304 303 303 303 303 303 302 300
6 7 6 6 7 7 7 8 9 7 6 6 6 4 3 2 0 359 358 358 358 358 358 358 358 357 356 356 356 355 354 353 353 353 352 352 351 350 349 348 347 345 344 343 342 342 341 340 340 339 338 337 336 335 333 331 330 329 328 326 325 324 323 322 321 320 319 319 317 316 315 314 313 311 310 309 308 307 306 305 305 305 305 305 304 301
5 5 5 5 5 6 6 6 7 8 7 6 6 5 4 2 1 360 359 358 358 358 358 358 358 357 357 357 356 356 355 354 354 354 353 352 352 351 350 349 348 347 345 344 344 343 342 342 341 341 340 339 338 336 335 333 332 331 330 329 327 326 325 325 323 322 322 321 319 317 316 315 315 314 313 312 311 310 309 307 307 307 308 307 305 303
3 3 4 4 4 4 5 5 6 7 7 7 6 5 4 3 2 0 359 358 358 358 358 358 358 358 357 357 357 356 356 355 354 354 353 353 352 352 351 350 349 348 347 345 345 345 344 343 342 342 341 340 339 338 336 335 334 333 332 331 330 329 328 327 326 324 323 322 321 319 318 317 317 316 316 315 314 312 310 309 309 309 309 309 307 305
3 2 2 3 3 3 4 4 4 5 6 6 6 5 4 3 2 1 359 358 357 358 358 358 358 357 357 357 357 357 356 356 355 354 354 353 353 352 351 350 350 349 348 347 346 346 345 344 344 343 343 342 340 339 338 337 336 335 334 333 332 331 330 329 327 326 325 324 323 321 320 320 319 319 318 317 316 315 313 311 310 310 311 310 309 307
2 1 1 2 3 2 2 3 4 4 5 5 6 5 5 3 2 1 0 359 357 357 357 358 358 357 357 357 357 357 357 356 355 354 354 354 353 353 352 351 351 350 349 348 347 347 346 345 345 345 344 343 341 340 339 338 338 337 336 335 334 332 331 330 329 327 326 326 325 324 323 322 321 320 320 319 318 317 315 312 311 311 312 312 311 310
1 1 0 0 1 2 2 2 3 3 4 4 5 5 5 4 3 2 1 359 358 357 357 357 357 357 357 356 356 356 357 356 356 355 354 354 354 354 353 352 351 351 350 348 348 348 347 346 346 346 345 343 342 341 340 340 339 339 338 337 335 334 333 332 330 329 328 327 327 326 325 324 323 322 322 321 321 320 317 315 312 312 313 314 313 312
360 0 0 360 360 1 2 2 2 2 3 4 4 4 4 4 3 2 1 0 358 357 357 357 357 357 357 356 356 356 356 356 356 355 355 354 354 354 353 353 352 352 351 349 348 348 348 347 347 346 345 344 343 342 342 341 341 340 339 338 337 335 334 333 332 331 330 329 329 328 328 326 325 324 323 323 323 322 321 318 316 314 314 316 316 314
359 359 359 359 359 360 1 1 2 2 2 2 3 4 4 3 3 2 2 1 359 358 357 357 357 357 357 356 356 356 356 356 356 356 355 354 354 354 354 353 352 352 351 350 349 349 348 348 347 347 346 345 344 343 343 342 342 341 341 340 339 337 335 334 333 332 331 331 330 330 330 329 327 326 325 325 325 324 323 322 320 317 316 317 318 317
357 358 358 359 359 359 359 0 1 1 1 2 2 3 3 3 3 2 2 1 360 358 357 357 356 356 356 356 356 356 356 356 356 356 355 355 354 354 354 354 353 353 352 351 350 349 349 349 348 348 347 346 345 344 344 343 343 342 342 341 340 339 337 335 335 334 333 332 332 331 332 331 329 327 327 328 327 326 325 325 324 321 318 317 318 318
356 357 358 358 358 358 358 359 360 0 0 1 1 2 2 2 2 2 1 1 360 358 357 357 356 356 356 356 356 356 356 356 356 356 355 355 354 354 354 354 353 353 353 352 350 350 350 349 349 348 348 347 346 345 345 344 344 344 343 342 341 340 338 337 336 336 335 334 333 333 333 333 331 329 329 330 330 329 327 326 325 324 321 318 318 318